Location: Eldred Sherwood Park Lake Dam
(42.9416°N, 93.5655°W)
Time: 22:22:48
(UTC+00:00)

Transit 4A - Pass Details

Date: 15 November 2024
Orbit: 862 x 980 km, 66.8° (Epoch: 06 December)

Event Time Altitude Azimuth Distance (km) Brightness Sun altitude
Rises 01:27:20 0° 334° (NNW) 3,648 11.3 -28.6°
Reaches altitude 10° 01:31:39 10° 2° (N) 2,719 10.3 -29.4°
Enters shadow 01:32:21 11° 8° (N) 2,632 10.2 -29.5°
